| time (UTC) | temp C | wind direction | speed KPH | gust KPH | rain 1hr cm | rain 24hr cm | rain mn cm | humidity % | barometer mb |
| 20260506182520 | 21 | 0.0 | 0.0 | 0.00 | 0.00 | 0.00 | 49 | 1006.6 | |
| 20260506182018 | 21 | 0.0 | 0.0 | 0.00 | 0.00 | 0.00 | 48 | 1006.6 | |
| 20260506181516 | 22 | 0.0 | 0.0 | 0.00 | 0.00 | 0.00 | 47 | 1006.5 | |
| 20260506181034 | 22 | 0.0 | 0.0 | 0.00 | 0.00 | 0.00 | 47 | 1006.5 | |
| 20260506180532 | 22 | 0.0 | 0.0 | 0.00 | 0.00 | 0.00 | 46 | 1006.5 | |
| 20260506180030 | 22 | 0.0 | 0.0 | 0.00 | 0.00 | 0.00 | 46 | 1006.4 | |
| 20260506175528 | 22 | 0.0 | 0.0 | 0.00 | 0.00 | 0.00 | 46 | 1006.3 | |
| 20260506175026 | 22 | 0.0 | 0.0 | 0.00 | 0.00 | 0.00 | 45 | 1006.4 | |
| 20260506174524 | 23 | 0.0 | 0.0 | 0.00 | 0.00 | 0.00 | 44 | 1006.4 | |
| 20260506174022 | 23 | 0.0 | 0.0 | 0.00 | 0.00 | 0.00 | 44 | 1006.3 | |
| 20260506173520 | 23 | 0.0 | 0.0 | 0.00 | 0.00 | 0.00 | 43 | 1006.4 | |
| 20260506173018 | 23 | 0.0 | 0.0 | 0.00 | 0.00 | 0.00 | 43 | 1006.3 | |
| 20260506172517 | 23 | 285 | 1.6 | 3.2 | 0.00 | 0.00 | 0.00 | 42 | 1006.3 |
| 20260506172035 | 23 | 288 | 1.6 | 4.8 | 0.00 | 0.00 | 0.00 | 42 | 1006.3 |
| 20260506171534 | 23 | 284 | 1.6 | 4.8 | 0.00 | 0.00 | 0.00 | 41 | 1006.2 |
| 20260506171031 | 23 | 274 | 1.6 | 3.2 | 0.00 | 0.00 | 0.00 | 41 | 1006.2 |
| 20260506170530 | 24 | 268 | 3.2 | 9.7 | 0.00 | 0.00 | 0.00 | 41 | 1006.2 |
| 20260506170029 | 24 | 283 | 1.6 | 4.8 | 0.00 | 0.00 | 0.00 | 40 | 1006.2 |
| 20260506165526 | 24 | 276 | 3.2 | 9.7 | 0.00 | 0.00 | 0.00 | 40 | 1006.2 |
| 20260506165023 | 24 | 285 | 3.2 | 6.4 | 0.00 | 0.00 | 0.00 | 40 | 1006.2 |
| 20260506164521 | 24 | 266 | 3.2 | 6.4 | 0.00 | 0.00 | 0.00 | 40 | 1006.2 |
| 20260506164048 | 24 | 270 | 4.8 | 9.7 | 0.00 | 0.00 | 0.00 | 39 | 1006.2 |
| 20260506164019 | 24 | 270 | 4.8 | 9.7 | 0.00 | 0.00 | 0.00 | 39 | 1006.2 |
| 20260506163517 | 24 | 276 | 4.8 | 11.3 | 0.00 | 0.00 | 0.00 | 39 | 1006.1 |
| 20260506163035 | 24 | 274 | 4.8 | 12.9 | 0.00 | 0.00 | 0.00 | 40 | 1006.1 |
| 20260506162533 | 24 | 260 | 3.2 | 12.9 | 0.00 | 0.00 | 0.00 | 40 | 1006.2 |
| 20260506162032 | 24 | 278 | 4.8 | 11.3 | 0.00 | 0.00 | 0.00 | 39 | 1006.1 |
| 20260506161530 | 25 | 293 | 4.8 | 14.5 | 0.00 | 0.00 | 0.00 | 39 | 1006.1 |
| 20260506161028 | 25 | 266 | 4.8 | 12.9 | 0.00 | 0.00 | 0.00 | 39 | 1006.1 |
| 20260506160526 | 25 | 254 | 6.4 | 17.7 | 0.00 | 0.00 | 0.00 | 38 | 1006.2 |
| 20260506160024 | 25 | 255 | 8.0 | 17.7 | 0.00 | 0.00 | 0.00 | 38 | 1006.1 |
| 20260506155522 | 25 | 263 | 4.8 | 12.9 | 0.00 | 0.00 | 0.00 | 39 | 1006.2 |
| 20260506155019 | 25 | 250 | 8.0 | 17.7 | 0.00 | 0.00 | 0.00 | 38 | 1006.2 |
| 20260506154517 | 25 | 246 | 6.4 | 14.5 | 0.00 | 0.00 | 0.00 | 39 | 1006.1 |
| 20260506154035 | 25 | 271 | 8.0 | 22.5 | 0.00 | 0.00 | 0.00 | 39 | 1006.2 |
| 20260506153533 | 25 | 241 | 8.0 | 14.5 | 0.00 | 0.00 | 0.00 | 40 | 1006.2 |
| 20260506153030 | 25 | 207 | 6.4 | 20.9 | 0.00 | 0.00 | 0.00 | 39 | 1006.3 |
| 20260506152528 | 25 | 234 | 6.4 | 16.1 | 0.00 | 0.00 | 0.00 | 39 | 1006.2 |
| 20260506152026 | 25 | 227 | 6.4 | 14.5 | 0.00 | 0.00 | 0.00 | 39 | 1006.2 |
| 20260506151525 | 25 | 280 | 6.4 | 14.5 | 0.00 | 0.00 | 0.00 | 40 | 1006.2 |
| 20260506151022 | 25 | 270 | 6.4 | 17.7 | 0.00 | 0.00 | 0.00 | 40 | 1006.4 |
| 20260506150520 | 25 | 261 | 8.0 | 17.7 | 0.00 | 0.00 | 0.00 | 39 | 1006.3 |
| 20260506150018 | 25 | 251 | 6.4 | 14.5 | 0.00 | 0.00 | 0.00 | 39 | 1006.5 |
| 20260506145517 | 25 | 256 | 9.7 | 20.9 | 0.00 | 0.00 | 0.00 | 40 | 1006.4 |
| 20260506145035 | 25 | 259 | 4.8 | 14.5 | 0.00 | 0.00 | 0.00 | 40 | 1006.5 |
| 20260506144533 | 25 | 238 | 4.8 | 11.3 | 0.00 | 0.00 | 0.00 | 40 | 1006.5 |
| 20260506144031 | 25 | 240 | 6.4 | 14.5 | 0.00 | 0.00 | 0.00 | 40 | 1006.5 |
| 20260506143529 | 25 | 234 | 6.4 | 17.7 | 0.00 | 0.00 | 0.00 | 40 | 1006.5 |
| 20260506143027 | 25 | 249 | 8.0 | 22.5 | 0.00 | 0.00 | 0.00 | 40 | 1006.5 |
| 20260506142525 | 25 | 255 | 9.7 | 22.5 | 0.00 | 0.00 | 0.00 | 39 | 1006.5 |
| 20260506142024 | 25 | 213 | 8.0 | 17.7 | 0.00 | 0.00 | 0.00 | 40 | 1006.6 |
| 20260506141523 | 25 | 235 | 11.3 | 22.5 | 0.00 | 0.00 | 0.00 | 39 | 1006.5 |
| 20260506141020 | 25 | 254 | 8.0 | 16.1 | 0.00 | 0.00 | 0.00 | 40 | 1006.5 |
| 20260506140517 | 25 | 225 | 8.0 | 24.1 | 0.00 | 0.00 | 0.00 | 39 | 1006.6 |
| 20260506140049 | 25 | 258 | 9.7 | 22.5 | 0.00 | 0.00 | 0.00 | 39 | 1006.6 |
| 20260506140016 | 25 | 258 | 9.7 | 22.5 | 0.00 | 0.00 | 0.00 | 39 | 1006.6 |
| 20260506135535 | 25 | 276 | 9.7 | 17.7 | 0.00 | 0.00 | 0.00 | 38 | 1006.6 |
| 20260506135032 | 25 | 268 | 11.3 | 27.4 | 0.00 | 0.00 | 0.00 | 39 | 1006.6 |
| 20260506134531 | 25 | 237 | 6.4 | 17.7 | 0.00 | 0.00 | 0.00 | 40 | 1006.5 |
| 20260506134029 | 26 | 246 | 9.7 | 25.7 | 0.00 | 0.00 | 0.00 | 39 | 1006.6 |
| 20260506133526 | 25 | 242 | 11.3 | 29.0 | 0.00 | 0.00 | 0.00 | 40 | 1006.5 |
| 20260506133025 | 25 | 250 | 8.0 | 16.1 | 0.00 | 0.00 | 0.00 | 40 | 1006.4 |
| 20260506132523 | 25 | 271 | 8.0 | 14.5 | 0.00 | 0.00 | 0.00 | 39 | 1006.4 |
| 20260506132021 | 25 | 286 | 8.0 | 17.7 | 0.00 | 0.00 | 0.00 | 40 | 1006.5 |
| 20260506131520 | 25 | 265 | 8.0 | 22.5 | 0.00 | 0.00 | 0.00 | 40 | 1006.5 |
| 20260506131017 | 25 | 252 | 8.0 | 16.1 | 0.00 | 0.00 | 0.00 | 40 | 1006.5 |
| 20260506130516 | 26 | 279 | 11.3 | 27.4 | 0.00 | 0.00 | 0.00 | 39 | 1006.6 |
| 20260506130034 | 26 | 259 | 8.0 | 33.8 | 0.00 | 0.00 | 0.00 | 41 | 1006.4 |
| 20260506125532 | 25 | 237 | 8.0 | 17.7 | 0.00 | 0.00 | 0.00 | 40 | 1006.5 |
| 20260506125030 | 25 | 265 | 9.7 | 27.4 | 0.00 | 0.00 | 0.00 | 41 | 1006.3 |
| 20260506124528 | 25 | 270 | 8.0 | 17.7 | 0.00 | 0.00 | 0.00 | 41 | 1006.5 |
| 20260506124026 | 25 | 264 | 8.0 | 20.9 | 0.00 | 0.00 | 0.00 | 42 | 1006.5 |
| 20260506123525 | 25 | 280 | 8.0 | 27.4 | 0.00 | 0.00 | 0.00 | 41 | 1006.5 |
| 20260506123023 | 25 | 249 | 9.7 | 24.1 | 0.00 | 0.00 | 0.00 | 42 | 1006.6 |
| 20260506122521 | 25 | 245 | 6.4 | 17.7 | 0.00 | 0.00 | 0.00 | 42 | 1006.6 |
| 20260506122019 | 25 | 278 | 6.4 | 16.1 | 0.00 | 0.00 | 0.00 | 42 | 1006.7 |
| 20260506121517 | 25 | 237 | 9.7 | 22.5 | 0.00 | 0.00 | 0.00 | 42 | 1006.7 |
| 20260506121048 | 25 | 256 | 11.3 | 22.5 | 0.00 | 0.00 | 0.00 | 43 | 1006.6 |
| 20260506121016 | 25 | 256 | 11.3 | 22.5 | 0.00 | 0.00 | 0.00 | 43 | 1006.6 |
| 20260506120534 | 25 | 275 | 12.9 | 30.6 | 0.00 | 0.00 | 0.00 | 43 | 1006.6 |
| 20260506120032 | 25 | 266 | 12.9 | 24.1 | 0.00 | 0.00 | 0.00 | 43 | 1006.5 |
| 20260506115530 | 25 | 249 | 11.3 | 25.7 | 0.00 | 0.00 | 0.00 | 43 | 1006.6 |
| 20260506115029 | 25 | 261 | 6.4 | 17.7 | 0.00 | 0.00 | 0.00 | 44 | 1006.6 |
| 20260506114526 | 25 | 254 | 8.0 | 17.7 | 0.00 | 0.00 | 0.00 | 43 | 1006.6 |
| 20260506114025 | 25 | 240 | 11.3 | 24.1 | 0.00 | 0.00 | 0.00 | 43 | 1006.5 |
| 20260506113523 | 25 | 208 | 9.7 | 22.5 | 0.00 | 0.00 | 0.00 | 43 | 1006.5 |
| 20260506113021 | 25 | 266 | 9.7 | 27.4 | 0.00 | 0.00 | 0.00 | 42 | 1006.5 |
| 20260506112519 | 25 | 273 | 9.7 | 25.7 | 0.00 | 0.00 | 0.00 | 42 | 1006.5 |
| 20260506112017 | 25 | 248 | 8.0 | 20.9 | 0.00 | 0.00 | 0.00 | 42 | 1006.5 |
| 20260506111535 | 25 | 238 | 9.7 | 29.0 | 0.00 | 0.00 | 0.00 | 43 | 1006.5 |
| 20260506111033 | 25 | 192 | 11.3 | 24.1 | 0.00 | 0.00 | 0.00 | 42 | 1006.4 |
| 20260506110532 | 25 | 253 | 11.3 | 30.6 | 0.00 | 0.00 | 0.00 | 42 | 1006.4 |
| 20260506110030 | 25 | 255 | 12.9 | 27.4 | 0.00 | 0.00 | 0.00 | 41 | 1006.4 |
| 20260506105528 | 25 | 225 | 9.7 | 29.0 | 0.00 | 0.00 | 0.00 | 43 | 1006.3 |
| 20260506105026 | 25 | 260 | 9.7 | 27.4 | 0.00 | 0.00 | 0.00 | 43 | 1006.3 |
| 20260506104524 | 25 | 255 | 8.0 | 27.4 | 0.00 | 0.00 | 0.00 | 43 | 1006.3 |
| 20260506104022 | 25 | 222 | 6.4 | 22.5 | 0.00 | 0.00 | 0.00 | 43 | 1006.3 |
| 20260506103521 | 24 | 253 | 9.7 | 17.7 | 0.00 | 0.00 | 0.00 | 43 | 1006.4 |
| 20260506103019 | 24 | 263 | 6.4 | 14.5 | 0.00 | 0.00 | 0.00 | 42 | 1006.4 |
| 20260506102517 | 24 | 248 | 11.3 | 24.1 | 0.00 | 0.00 | 0.00 | 43 | 1006.3 |
| 20260506102036 | 24 | 279 | 9.7 | 22.5 | 0.00 | 0.00 | 0.00 | 42 | 1006.4 |
| 20260506101534 | 24 | 237 | 9.7 | 24.1 | 0.00 | 0.00 | 0.00 | 41 | 1006.3 |
| 20260506101032 | 24 | 210 | 8.0 | 17.7 | 0.00 | 0.00 | 0.00 | 41 | 1006.4 |
| 20260506100530 | 24 | 212 | 12.9 | 25.7 | 0.00 | 0.00 | 0.00 | 41 | 1006.4 |
| 20260506100028 | 25 | 243 | 11.3 | 25.7 | 0.00 | 0.00 | 0.00 | 41 | 1006.3 |
| 20260506095527 | 24 | 236 | 8.0 | 20.9 | 0.00 | 0.00 | 0.00 | 41 | 1006.4 |
| 20260506095024 | 24 | 252 | 11.3 | 25.7 | 0.00 | 0.00 | 0.00 | 40 | 1006.4 |
| 20260506094523 | 24 | 224 | 11.3 | 27.4 | 0.00 | 0.00 | 0.00 | 40 | 1006.3 |
| 20260506094021 | 24 | 191 | 9.7 | 25.7 | 0.00 | 0.00 | 0.00 | 40 | 1006.3 |
| 20260506093519 | 24 | 234 | 11.3 | 25.7 | 0.00 | 0.00 | 0.00 | 40 | 1006.3 |
| 20260506093017 | 24 | 191 | 11.3 | 24.1 | 0.00 | 0.00 | 0.00 | 40 | 1006.2 |
| 20260506092515 | 24 | 222 | 9.7 | 27.4 | 0.00 | 0.00 | 0.00 | 40 | 1006.4 |
| 20260506092034 | 24 | 189 | 11.3 | 24.1 | 0.00 | 0.00 | 0.00 | 40 | 1006.4 |
| 20260506091532 | 23 | 234 | 9.7 | 22.5 | 0.00 | 0.00 | 0.00 | 40 | 1006.2 |
| 20260506091030 | 24 | 214 | 9.7 | 27.4 | 0.00 | 0.00 | 0.00 | 40 | 1006.3 |
| 20260506090528 | 23 | 201 | 9.7 | 24.1 | 0.00 | 0.00 | 0.00 | 40 | 1006.2 |
| 20260506090027 | 23 | 200 | 11.3 | 24.1 | 0.00 | 0.00 | 0.00 | 41 | 1006.2 |
| 20260506085525 | 23 | 220 | 9.7 | 27.4 | 0.00 | 0.00 | 0.00 | 41 | 1006.3 |
| 20260506085023 | 23 | 253 | 11.3 | 24.1 | 0.00 | 0.00 | 0.00 | 42 | 1006.3 |
| 20260506084521 | 23 | 247 | 6.4 | 16.1 | 0.00 | 0.00 | 0.00 | 42 | 1006.2 |
| 20260506084019 | 23 | 233 | 9.7 | 22.5 | 0.00 | 0.00 | 0.00 | 42 | 1006.2 |
| 20260506083517 | 22 | 187 | 6.4 | 16.1 | 0.00 | 0.00 | 0.00 | 42 | 1006.1 |
| 20260506083035 | 22 | 181 | 8.0 | 17.7 | 0.00 | 0.00 | 0.00 | 43 | 1006.2 |
| 20260506082533 | 22 | 203 | 4.8 | 14.5 | 0.00 | 0.00 | 0.00 | 43 | 1006.1 |
| 20260506082031 | 22 | 220 | 6.4 | 17.7 | 0.00 | 0.00 | 0.00 | 43 | 1006.2 |
| 20260506081530 | 22 | 201 | 4.8 | 11.3 | 0.00 | 0.00 | 0.00 | 44 | 1006.2 |
| 20260506081028 | 22 | 236 | 8.0 | 17.7 | 0.00 | 0.00 | 0.00 | 44 | 1006.2 |
| 20260506080526 | 21 | 234 | 4.8 | 16.1 | 0.00 | 0.00 | 0.00 | 44 | 1006.1 |
| 20260506073033 | 20 | 276 | 6.4 | 14.5 | 0.00 | 0.00 | 0.00 | 46 | 1006.3 |
| 20260506072543 | 20 | 281 | 4.8 | 12.9 | 0.00 | 0.00 | 0.00 | 47 | 1006.3 |
| 20260506072029 | 20 | 230 | 3.2 | 11.3 | 0.00 | 0.00 | 0.00 | 50 | 1006.4 |
| 20260506071527 | 19 | 272 | 4.8 | 9.7 | 0.00 | 0.00 | 0.00 | 50 | 1006.3 |
| 20260506071025 | 19 | 237 | 4.8 | 12.9 | 0.00 | 0.00 | 0.00 | 51 | 1006.4 |
| 20260506070524 | 18 | 278 | 3.2 | 11.3 | 0.00 | 0.00 | 0.00 | 51 | 1006.3 |
| 20260506062027 | 16 | 215 | 3.2 | 6.4 | 0.00 | 0.00 | 0.00 | 55 | 1006.4 |
| 20260506061526 | 16 | 184 | 4.8 | 11.3 | 0.00 | 0.00 | 0.00 | 56 | 1006.5 |
| 20260506061025 | 16 | 183 | 4.8 | 12.9 | 0.00 | 0.00 | 0.00 | 56 | 1006.5 |
| 20260506060522 | 16 | 177 | 8.0 | 16.1 | 0.00 | 0.00 | 0.00 | 56 | 1006.6 |
| 20260506051022 | 14 | 160 | 3.2 | 6.4 | 0.00 | 0.00 | 0.00 | 59 | 1006.5 |
| 20260506050521 | 14 | 169 | 3.2 | 11.3 | 0.00 | 0.00 | 0.00 | 59 | 1006.6 |
| 20260506045035 | 13 | 166 | 1.6 | 6.4 | 0.00 | 0.00 | 0.00 | 60 | 1006.5 |
| 20260506044533 | 13 | 111 | 1.6 | 4.8 | 0.00 | 0.00 | 0.00 | 60 | 1006.5 |
| 20260506044033 | 13 | 140 | 1.6 | 6.4 | 0.00 | 0.00 | 0.00 | 61 | 1006.7 |
| 20260506043530 | 13 | 120 | 3.2 | 4.8 | 0.00 | 0.00 | 0.00 | 61 | 1006.6 |
| 20260506043028 | 13 | 102 | 3.2 | 4.8 | 0.00 | 0.00 | 0.00 | 62 | 1006.7 |
| 20260506042526 | 12 | 129 | 1.6 | 4.8 | 0.00 | 0.00 | 0.00 | 62 | 1006.8 |
| 20260506042024 | 12 | 152 | 1.6 | 4.8 | 0.00 | 0.00 | 0.00 | 61 | 1006.8 |
| 20260506041522 | 12 | 0.0 | 0.0 | 0.00 | 0.00 | 0.00 | 60 | 1006.9 | |
| 20260506041020 | 12 | 0.0 | 0.0 | 0.00 | 0.00 | 0.00 | 60 | 1006.7 | |
| 20260506040518 | 12 | 0.0 | 0.0 | 0.00 | 0.00 | 0.00 | 60 | 1006.7 | |
| 20260506040048 | 12 | 105 | 1.6 | 3.2 | 0.00 | 0.00 | 0.00 | 60 | 1006.7 |
| 20260506040017 | 12 | 105 | 1.6 | 3.2 | 0.00 | 0.00 | 0.00 | 60 | 1006.7 |
| 20260506035535 | 12 | 109 | 1.6 | 3.2 | 0.00 | 0.00 | 0.00 | 60 | 1006.8 |
| 20260506035034 | 12 | 134 | 0.0 | 3.2 | 0.00 | 0.00 | 0.00 | 61 | 1006.7 |
| 20260506034531 | 12 | 104 | 1.6 | 3.2 | 0.00 | 0.00 | 0.00 | 60 | 1006.6 |
| 20260506034030 | 12 | 104 | 1.6 | 3.2 | 0.00 | 0.00 | 0.00 | 59 | 1006.5 |
| 20260506033528 | 12 | 103 | 3.2 | 3.2 | 0.00 | 0.00 | 0.00 | 59 | 1006.5 |
| 20260506033025 | 12 | 103 | 3.2 | 3.2 | 0.00 | 0.00 | 0.00 | 59 | 1006.6 |
| 20260506032524 | 12 | 102 | 1.6 | 3.2 | 0.00 | 0.00 | 0.00 | 59 | 1006.6 |
| 20260506032022 | 12 | 101 | 1.6 | 3.2 | 0.00 | 0.00 | 0.00 | 59 | 1006.6 |
| 20260506031520 | 12 | 105 | 3.2 | 4.8 | 0.00 | 0.00 | 0.00 | 59 | 1006.5 |
| 20260506031018 | 12 | 103 | 3.2 | 4.8 | 0.00 | 0.00 | 0.00 | 59 | 1006.6 |
| 20260506030516 | 12 | 101 | 3.2 | 4.8 | 0.00 | 0.00 | 0.00 | 59 | 1006.6 |
| 20260506030035 | 12 | 108 | 1.6 | 3.2 | 0.00 | 0.00 | 0.00 | 59 | 1006.7 |
| 20260506025533 | 12 | 110 | 1.6 | 3.2 | 0.00 | 0.00 | 0.00 | 59 | 1006.7 |
| 20260506025106 | 12 | 109 | 3.2 | 4.8 | 0.00 | 0.00 | 0.00 | 59 | 1006.6 |
| 20260506025032 | 12 | 109 | 3.2 | 4.8 | 0.00 | 0.00 | 0.00 | 59 | 1006.6 |
| 20260506024530 | 13 | 100 | 1.6 | 4.8 | 0.00 | 0.00 | 0.00 | 57 | 1006.8 |
| 20260506024028 | 13 | 0.0 | 0.0 | 0.00 | 0.00 | 0.00 | 57 | 1006.8 | |
| 20260506023525 | 13 | 99 | 0.0 | 1.6 | 0.00 | 0.00 | 0.00 | 57 | 1006.7 |
| 20260506023024 | 13 | 120 | 1.6 | 3.2 | 0.00 | 0.00 | 0.00 | 57 | 1006.7 |
| 20260506022522 | 13 | 107 | 1.6 | 4.8 | 0.00 | 0.00 | 0.00 | 57 | 1006.6 |
| 20260506022020 | 13 | 102 | 3.2 | 4.8 | 0.00 | 0.00 | 0.00 | 57 | 1006.6 |
| 20260506021518 | 13 | 109 | 3.2 | 6.4 | 0.00 | 0.00 | 0.00 | 57 | 1006.7 |
| 20260506021016 | 13 | 101 | 3.2 | 6.4 | 0.00 | 0.00 | 0.00 | 56 | 1006.8 |
| 20260506020535 | 13 | 95 | 0.0 | 4.8 | 0.00 | 0.00 | 0.00 | 55 | 1006.9 |
| 20260506020033 | 13 | 0.0 | 0.0 | 0.00 | 0.00 | 0.00 | 55 | 1006.8 | |
| 20260506015531 | 13 | 0.0 | 0.0 | 0.00 | 0.00 | 0.00 | 55 | 1006.8 | |
| 20260506015030 | 13 | 0.0 | 0.0 | 0.00 | 0.00 | 0.00 | 56 | 1006.9 | |
| 20260506014527 | 13 | 0.0 | 0.0 | 0.00 | 0.00 | 0.00 | 56 | 1007.0 | |
| 20260506014026 | 13 | 0.0 | 0.0 | 0.00 | 0.00 | 0.00 | 56 | 1007.0 | |
| 20260506013524 | 13 | 0.0 | 0.0 | 0.00 | 0.00 | 0.00 | 55 | 1007.0 | |
| 20260506013034 | 13 | 0.0 | 0.0 | 0.00 | 0.00 | 0.00 | 55 | 1007.0 | |
| 20260506012521 | 13 | 0.0 | 0.0 | 0.00 | 0.00 | 0.00 | 55 | 1007.1 | |
| 20260506012019 | 13 | 0.0 | 0.0 | 0.00 | 0.00 | 0.00 | 54 | 1007.0 | |
| 20260506011517 | 13 | 0.0 | 0.0 | 0.00 | 0.00 | 0.00 | 54 | 1007.0 | |
| 20260506011035 | 13 | 0.0 | 0.0 | 0.00 | 0.00 | 0.00 | 54 | 1007.0 | |
| 20260506010533 | 13 | 0.0 | 0.0 | 0.00 | 0.00 | 0.00 | 53 | 1007.0 | |
| 20260506010032 | 13 | 0.0 | 0.0 | 0.00 | 0.00 | 0.00 | 53 | 1007.0 | |
| 20260506005530 | 13 | 0.0 | 0.0 | 0.00 | 0.00 | 0.00 | 53 | 1006.9 | |
| 20260506005028 | 13 | 0.0 | 0.0 | 0.00 | 0.00 | 0.00 | 53 | 1007.0 | |
| 20260506004526 | 13 | 0.0 | 0.0 | 0.00 | 0.00 | 0.00 | 52 | 1006.9 | |
| 20260506004024 | 13 | 0.0 | 0.0 | 0.00 | 0.00 | 0.00 | 52 | 1007.0 | |
| 20260506003522 | 13 | 183 | 0.0 | 1.6 | 0.00 | 0.00 | 0.00 | 52 | 1007.0 |
| 20260506003020 | 13 | 0.0 | 0.0 | 0.00 | 0.00 | 0.00 | 52 | 1007.0 | |
| 20260506002519 | 13 | 217 | 0.0 | 1.6 | 0.00 | 0.00 | 0.00 | 52 | 1007.0 |
| 20260506002049 | 13 | 192 | 3.2 | 6.4 | 0.00 | 0.00 | 0.00 | 52 | 1007.0 |
| 20260506002017 | 13 | 192 | 3.2 | 6.4 | 0.00 | 0.00 | 0.00 | 52 | 1007.0 |
| 20260506001535 | 13 | 188 | 3.2 | 6.4 | 0.00 | 0.00 | 0.00 | 51 | 1007.1 |
| 20260506001033 | 13 | 174 | 1.6 | 6.4 | 0.00 | 0.00 | 0.00 | 51 | 1007.1 |
| 20260506000532 | 14 | 0.0 | 0.0 | 0.00 | 0.00 | 0.00 | 51 | 1007.0 | |
| 20260506000030 | 14 | 206 | 0.0 | 1.6 | 0.00 | 0.00 | 0.00 | 51 | 1007.0 |
| 20260505235528 | 14 | 193 | 1.6 | 6.4 | 0.00 | 0.00 | 0.00 | 51 | 1007.1 |
| 20260505235027 | 14 | 191 | 1.6 | 6.4 | 0.00 | 0.00 | 0.00 | 50 | 1007.2 |
| 20260505234525 | 14 | 189 | 1.6 | 6.4 | 0.00 | 0.00 | 0.00 | 50 | 1007.2 |
| 20260505234023 | 14 | 192 | 3.2 | 6.4 | 0.00 | 0.00 | 0.00 | 50 | 1007.2 |
| 20260505233521 | 14 | 187 | 4.8 | 11.3 | 0.00 | 0.00 | 0.00 | 50 | 1007.3 |
| 20260505233050 | 14 | 190 | 4.8 | 9.7 | 0.00 | 0.00 | 0.00 | 50 | 1007.1 |
| 20260505233019 | 14 | 190 | 4.8 | 9.7 | 0.00 | 0.00 | 0.00 | 50 | 1007.1 |
| 20260505232517 | 14 | 188 | 4.8 | 12.9 | 0.00 | 0.00 | 0.00 | 50 | 1007.3 |
| 20260505232046 | 14 | 186 | 4.8 | 9.7 | 0.00 | 0.00 | 0.00 | 50 | 1007.2 |
| 20260505232015 | 14 | 186 | 4.8 | 9.7 | 0.00 | 0.00 | 0.00 | 50 | 1007.2 |
| 20260505231534 | 15 | 181 | 3.2 | 9.7 | 0.00 | 0.00 | 0.00 | 50 | 1007.2 |
| 20260505231032 | 15 | 186 | 3.2 | 6.4 | 0.00 | 0.00 | 0.00 | 50 | 1007.2 |
| 20260505230531 | 15 | 187 | 3.2 | 6.4 | 0.00 | 0.00 | 0.00 | 50 | 1007.2 |
| 20260505230030 | 15 | 184 | 3.2 | 4.8 | 0.00 | 0.00 | 0.00 | 49 | 1007.2 |
| 20260505225527 | 15 | 188 | 3.2 | 6.4 | 0.00 | 0.00 | 0.00 | 49 | 1007.1 |
| 20260505225116 | 15 | 193 | 3.2 | 6.4 | 0.00 | 0.00 | 0.00 | 49 | 1007.1 |
| 20260505225025 | 15 | 193 | 3.2 | 6.4 | 0.00 | 0.00 | 0.00 | 49 | 1007.1 |
| 20260505224523 | 15 | 189 | 3.2 | 4.8 | 0.00 | 0.00 | 0.00 | 48 | 1007.1 |
| 20260505224021 | 15 | 188 | 1.6 | 6.4 | 0.00 | 0.00 | 0.00 | 48 | 1007.1 |
| 20260505223520 | 15 | 181 | 1.6 | 6.4 | 0.00 | 0.00 | 0.00 | 48 | 1007.1 |
| 20260505223018 | 15 | 184 | 3.2 | 9.7 | 0.00 | 0.00 | 0.00 | 47 | 1007.1 |
| 20260505222516 | 16 | 182 | 3.2 | 6.4 | 0.00 | 0.00 | 0.00 | 47 | 1007.1 |
| 20260505222034 | 16 | 177 | 4.8 | 9.7 | 0.00 | 0.00 | 0.00 | 47 | 1007.1 |
| 20260505221532 | 16 | 176 | 3.2 | 6.4 | 0.00 | 0.00 | 0.00 | 47 | 1007.2 |
| 20260505221031 | 16 | 177 | 3.2 | 4.8 | 0.00 | 0.00 | 0.00 | 46 | 1007.2 |
| 20260505220529 | 16 | 173 | 3.2 | 4.8 | 0.00 | 0.00 | 0.00 | 46 | 1007.2 |
| 20260505220059 | 16 | 177 | 3.2 | 4.8 | 0.00 | 0.00 | 0.00 | 45 | 1007.3 |
| 20260505220027 | 16 | 177 | 3.2 | 4.8 | 0.00 | 0.00 | 0.00 | 45 | 1007.3 |
| 20260505215525 | 16 | 180 | 3.2 | 9.7 | 0.00 | 0.00 | 0.00 | 45 | 1007.3 |
| 20260505215023 | 16 | 188 | 1.6 | 4.8 | 0.00 | 0.00 | 0.00 | 45 | 1007.3 |
| 20260505214521 | 17 | 182 | 3.2 | 4.8 | 0.00 | 0.00 | 0.00 | 45 | 1007.3 |
| 20260505214020 | 17 | 188 | 3.2 | 6.4 | 0.00 | 0.00 | 0.00 | 45 | 1007.3 |
| 20260505213518 | 17 | 184 | 4.8 | 6.4 | 0.00 | 0.00 | 0.00 | 44 | 1007.2 |
| 20260505213047 | 17 | 182 | 4.8 | 9.7 | 0.00 | 0.00 | 0.00 | 44 | 1007.2 |
| 20260505213016 | 17 | 182 | 4.8 | 9.7 | 0.00 | 0.00 | 0.00 | 44 | 1007.2 |
| 20260505212535 | 17 | 190 | 3.2 | 6.4 | 0.00 | 0.00 | 0.00 | 44 | 1007.2 |
| 20260505212033 | 17 | 181 | 3.2 | 6.4 | 0.00 | 0.00 | 0.00 | 44 | 1007.1 |
| 20260505211531 | 17 | 184 | 4.8 | 9.7 | 0.00 | 0.00 | 0.00 | 44 | 1007.1 |
| 20260505211029 | 17 | 178 | 4.8 | 9.7 | 0.00 | 0.00 | 0.00 | 43 | 1007.1 |
| 20260505210527 | 17 | 178 | 4.8 | 9.7 | 0.00 | 0.00 | 0.00 | 43 | 1007.1 |
| 20260505210027 | 18 | 185 | 4.8 | 9.7 | 0.00 | 0.00 | 0.00 | 43 | 1007.2 |
| 20260505205524 | 18 | 182 | 3.2 | 4.8 | 0.00 | 0.00 | 0.00 | 42 | 1007.1 |
| 20260505205022 | 18 | 175 | 3.2 | 4.8 | 0.00 | 0.00 | 0.00 | 42 | 1007.1 |
| 20260505204520 | 18 | 181 | 3.2 | 4.8 | 0.00 | 0.00 | 0.00 | 42 | 1007.1 |
| 20260505204049 | 18 | 181 | 3.2 | 6.4 | 0.00 | 0.00 | 0.00 | 42 | 1007.1 |
| 20260505204018 | 18 | 181 | 3.2 | 6.4 | 0.00 | 0.00 | 0.00 | 42 | 1007.1 |
| 20260505203516 | 18 | 186 | 4.8 | 9.7 | 0.00 | 0.00 | 0.00 | 42 | 1007.1 |
| 20260505203035 | 18 | 195 | 3.2 | 6.4 | 0.00 | 0.00 | 0.00 | 42 | 1007.1 |
| 20260505202534 | 18 | 182 | 4.8 | 11.3 | 0.00 | 0.00 | 0.00 | 43 | 1007.0 |
| 20260505202031 | 18 | 181 | 3.2 | 6.4 | 0.00 | 0.00 | 0.00 | 42 | 1007.0 |
| 20260505201529 | 18 | 206 | 1.6 | 4.8 | 0.00 | 0.00 | 0.00 | 42 | 1006.9 |
| 20260505201027 | 18 | 183 | 4.8 | 11.3 | 0.00 | 0.00 | 0.00 | 43 | 1006.9 |
| 20260505200526 | 18 | 186 | 3.2 | 6.4 | 0.00 | 0.00 | 0.00 | 43 | 1007.0 |
| 20260505200025 | 18 | 178 | 4.8 | 9.7 | 0.00 | 0.00 | 0.00 | 43 | 1006.9 |
| 20260505195523 | 18 | 174 | 3.2 | 4.8 | 0.00 | 0.00 | 0.00 | 42 | 1006.9 |
| 20260505195020 | 19 | 177 | 0.0 | 1.6 | 0.00 | 0.00 | 0.00 | 42 | 1006.8 |
| 20260505194518 | 19 | 177 | 0.0 | 1.6 | 0.00 | 0.00 | 0.00 | 41 | 1006.7 |
| 20260505194017 | 19 | 177 | 1.6 | 3.2 | 0.00 | 0.00 | 0.00 | 41 | 1006.7 |
| 20260505193535 | 19 | 177 | 1.6 | 3.2 | 0.00 | 0.00 | 0.00 | 40 | 1006.8 |
| 20260505193032 | 20 | 178 | 1.6 | 3.2 | 0.00 | 0.00 | 0.00 | 40 | 1006.7 |
| 20260505192531 | 20 | 177 | 1.6 | 3.2 | 0.00 | 0.00 | 0.00 | 39 | 1006.8 |
| 20260505192029 | 20 | 174 | 1.6 | 3.2 | 0.00 | 0.00 | 0.00 | 39 | 1006.8 |
| 20260505191527 | 20 | 173 | 3.2 | 3.2 | 0.00 | 0.00 | 0.00 | 38 | 1006.8 |
| 20260505191026 | 20 | 173 | 3.2 | 3.2 | 0.00 | 0.00 | 0.00 | 38 | 1006.9 |
| 20260505190523 | 21 | 177 | 1.6 | 4.8 | 0.00 | 0.00 | 0.00 | 38 | 1006.8 |
| 20260505190021 | 21 | 180 | 1.6 | 3.2 | 0.00 | 0.00 | 0.00 | 38 | 1006.8 |
| 20260505185520 | 21 | 175 | 0.0 | 3.2 | 0.00 | 0.00 | 0.00 | 37 | 1006.8 |
| 20260505185018 | 21 | 177 | 0.0 | 4.8 | 0.00 | 0.00 | 0.00 | 37 | 1006.8 |
| 20260505184516 | 21 | 168 | 0.0 | 1.6 | 0.00 | 0.00 | 0.00 | 37 | 1006.8 |
| 20260505184034 | 21 | 161 | 0.0 | 1.6 | 0.00 | 0.00 | 0.00 | 37 | 1006.7 |
| 20260505183533 | 22 | 171 | 0.0 | 3.2 | 0.00 | 0.00 | 0.00 | 36 | 1006.8 |
| 20260505183031 | 22 | 166 | 0.0 | 3.2 | 0.00 | 0.00 | 0.00 | 35 | 1006.8 |